Regional Weather Roundup
Issued by NWS Charleston, SC

Current Version | Previous Version | Graphics & Text | Print | Product List | Glossary On
Versions: 1 2 3 4 5 6 7 8 9 10 11 12 13 14 15 16 17 18 19 20 21 22 23 24 25 26 27 28 29 30 31 32 33 34 35 36 37 38 39 40 41 42 43 44 45 46 47 48 49 50
000 ASUS42 KCHS 250427 RWRCHS REGIONAL WEATHER ROUNDUP NATIONAL WEATHER SERVICE CHARLESTON SC 1200 AM EDT SAT MAR 25 2017 NOTE: "FAIR" INDICATES FEW OR NO CLOUDS BELOW 12,000 FEET WITH NO SIGNIFICANT WEATHER AND/OR OBSTRUCTIONS TO VISIBILITY. NOT ALL STATIONS ARE QUALITY CONTROLLED. USE DATA WITH CAUTION... ESPECIALLY DEWPOINT OBSERVATIONS. SCZ027-030-031-034>040-042>050-250500- ...SOUTHEAST SOUTH CAROLINA... CITY SKY/WX TMP DP RH WIND PRES REMARKS N CHARLESTON CLOUDY 60 54 80 SE3 30.37F WATERFRONT PRK N/A 60 59 96 CALM 30.36F JOHNS ISLAND FAIR 59 55 88 CALM 30.38R PINOPOLIS N/A 61 54 77 VRB2 30.28F MONCKS CORNER FAIR 52 48 87 CALM 30.38R SUMMERVILLE MOCLDY 54 50 87 CALM 30.38S BEAUFORT MCAS CLOUDY 62 58 86 CALM 30.36F BEAUFORT ARPT FAIR 61 55 82 SE3 30.36S HILTON HEAD IS CLOUDY 63 59 88 CALM 30.37S WALTERBORO PTCLDY 55 52 88 CALM 30.38S ALLENDALE FAIR 59 54 82 CALM 30.36S ...SOUTHERN MIDLANDS AND PEE DEE... CITY SKY/WX TMP DP RH WIND PRES REMARKS GEORGETOWN CLOUDY 54 54 100 CALM 30.39S KINGSTREE FAIR 54 48 82 SE3 30.38S ORANGEBURG MOCLDY 60 52 74 S3 30.38R BARNWELL FAIR 61 54 77 CALM 30.37S AIKEN FAIR 59 50 72 SE6 30.39S MANNING FAIR 55 50 82 CALM 30.38S COLUMBIA PTCLDY 63 50 62 S6 30.36R SUMTER CLOUDY 60 49 66 S5 30.35R FLORENCE CLOUDY 58 50 75 S5 30.38R MYRTLE BEACH CLEAR 59 54 82 S7 30.39F N MYRTLE BEACH CLEAR 61 52 72 S6 30.38F $$ GAZ063-065-086>088-099>101-113>116-118-119-134>141-150-250500- ...SOUTHEAST GEORGIA... CITY SKY/WX TMP DP RH WIND PRES REMARKS SAVANNAH ARPT PTCLDY 62 55 77 CALM 30.36F HUNTER AAF PTCLDY 60 58 91 CALM 30.33F FORT STEWART MOCLDY 56 53 90 CALM 30.34S STATESBORO MOCLDY 55 55 100 CALM 30.36S SYLVANIA PTCLDY N/A N/A N/A CALM 30.37S CLAXTON FAIR N/A N/A N/A CALM 30.36S ...CSRA...CENTRAL AND FAR SOUTHEAST GEORGIA... CITY SKY/WX TMP DP RH WIND PRES REMARKS THOMSON CLEAR 62 50 66 SW9 30.39R AUGUSTA-BUSH PTCLDY 62 52 69 SE7 30.35R AUGUSTA-DANIEL PTCLDY 63 49 60 SE8 30.35S SWAINSBORO FAIR 59 54 82 SE6 30.36S VIDALIA CLEAR 61 55 82 SE3 30.34F EASTMAN FAIR 64 46 52 SE7 30.35F HAZLEHURST FAIR 62 57 83 SE3 30.33S ALMA CLEAR 60 55 83 E6 30.33F WAYCROSS CLEAR 61 59 92 E3 30.33F JESUP FAIR 55 54 94 CALM 30.34F BAXLEY FAIR 61 61 100 SE3 30.33F BRUNSWICK CLOUDY 55 55 100 CALM 30.35S SAINT SIMONS CLOUDY 64 58 80 E5 30.33F $$ SCZ027-028-034-036>038-045-046-048>050-GAZ119-141-250500- ...LAKE AND SUPPLEMENTAL COASTAL OBSERVATIONS... STATION/POSITION TIME TEMP WIND PRES WAVE SWELL AIR SEA DIR/SP/G HT/PER HT/PER/DIR (UTC) (F) (DEG/KT/KT) (MB) (FT/S) (FT/S/D) WINYAH BAY 0345 56 CALM 1028.0F LAKE MURRAY 0350 62 160/ 8/ 10 1027.1S ACE BASIN NERRS 0345 61 CALM 1028.0S FORT PULASKI 0400 62 61 100/ 3/ 4 1028.2 SAPELO ISLAND 0400 63 100/ 4 1027.0 $$ ANZ835-935-AMZ111-154-330-350-352-354-370-450-454-472-250500- ...C-MAN AND BUOY OBSERVATIONS... STATION/POSITION TIME TEMP WIND PRES WAVE SWELL AIR SEA DIR/SP/G HT/PER HT/PER/DIR (UTC) (F) (DEG/KT/KT) (MB) (FT/S) (FT/S/D) BUOY 41004 0350 69 71 140/ 16/ 17 1028.2F 4/ 8 3/120/ 8 BUOY 41008 0350 65 62 100/ 10/ 12 1027.5S 4/ 7 3/110/ 7 FOLLY BEACH CMAN 0400 62 210/ 5/ 5 1028.9F CAPERS NEARSHORE 0308 61 130/ 4/ 6 1028.7S FRIPP NEARSHORE 0408 63 60 140/ 8/ 10 1027.9S STATION/POSITION TIME TEMP WIND PRES WAVE SWELL AIR SEA DIR/SP/G HT/PER HT/PER/DIR (UTC) (F) (DEG/KT/KT) (MB) (FT/S) (FT/S/D) 5E ST. MARYS GA 0400 64 N/A 4/ 8 2/110/11 FRYING PAN BUOY 0410 68 72 190/ 12/ 14 1029.3 BUOY 41025 0350 67 75 210/ 19/ 25 1028.6F 4/11 3/100/11 CAPE LOOKOUT NC 0400 65 220/ 11/ 14 1028.8S BUOY 41002 0350 64 73 100/ 14/ 17 1030.6F 5/ 7 3/ 90/ 7 BUOY 41010 NOT AVBL ST AUGUSTINE FL 0400 68 67 110/ 16/ 17 1027.3F $$

USA.gov is the U.S. government's official web portal to all federal, state and local government web resources and services.